03-06-2022, 00:00:01,    114,    0.0,   11.8,   0.00,   0.00, 1015.4,   50.7, -999.0
03-06-2022, 00:00:11,    115,    0.0,   11.8,   0.00,   0.00, 1015.3,   50.7, -999.0
03-06-2022, 00:00:21,    114,    0.0,   11.8,   0.00,   0.00, 1015.3,   50.7, -999.0
03-06-2022, 00:00:31,    114,    0.0,   11.8,   0.00,   0.00, 1015.3,   50.8, -999.0
03-06-2022, 00:00:41,    115,    0.0,   11.8,   0.00,   0.00, 1015.3,   50.8, -999.0
03-06-2022, 00:00:51,    115,    0.0,   11.8,   0.00,   0.00, 1015.3,   50.6, -999.0
03-06-2022, 00:01:01,    115,    0.0,   11.7,   0.00,   0.00, 1015.3,   50.5, -999.0
03-06-2022, 00:01:11,    115,    0.0,   11.6,   0.00,   0.00, 1015.3,   50.5, -999.0
03-06-2022, 00:01:21,    115,    0.0,   11.6,   0.00,   0.00, 1015.3,   50.6, -999.0
03-06-2022, 00:01:31,    114,    0.0,   11.6,   0.00,   0.00, 1015.3,   50.9, -999.0
03-06-2022, 00:01:41,    115,    0.0,   11.6,   0.00,   0.00, 1015.3,   51.0, -999.0
03-06-2022, 00:01:51,    115,    0.0,   11.6,   0.00,   0.00, 1015.3,   50.8, -999.0
03-06-2022, 00:02:00,    115,    0.0,   11.5,   0.00,   0.00, 1015.3,   51.0, -999.0
03-06-2022, 00:02:11,    114,    0.0,   11.5,   0.00,   0.00, 1015.3,   51.0, -999.0
03-06-2022, 00:02:21,    115,    0.0,   11.5,   0.00,   0.00, 1015.3,   51.1, -999.0
03-06-2022, 00:02:30,    115,    0.0,   11.6,   0.00,   0.00, 1015.4,   51.3, -999.0
03-06-2022, 00:02:41,    114,    0.0,   11.6,   0.00,   0.00, 1015.3,   51.1, -999.0
03-06-2022, 00:02:50,    115,    0.0,   11.6,   0.00,   0.00, 1015.4,   51.1, -999.0
03-06-2022, 00:03:00,    114,    0.0,   11.6,   0.00,   0.00, 1015.4,   51.0, -999.0
03-06-2022, 00:03:10,    115,    0.0,   11.6,   0.00,   0.00, 1015.4,   51.1, -999.0
03-06-2022, 00:03:20,    115,    0.0,   11.7,   0.00,   0.00, 1015.4,   51.2, -999.0
03-06-2022, 00:03:30,    114,    0.0,   11.7,   0.00,   0.00, 1015.4,   51.3, -999.0
03-06-2022, 00:03:40,    114,    0.0,   11.7,   0.00,   0.00, 1015.4,   51.1, -999.0
03-06-2022, 00:03:50,    114,    0.0,   11.7,   0.00,   0.00, 1015.4,   51.1, -999.0
03-06-2022, 00:04:00,    114,    0.0,   11.8,   0.00,   0.00, 1015.4,   51.0, -999.0
03-06-2022, 00:04:10,    115,    0.0,   11.7,   0.00,   0.00, 1015.4,   50.9, -999.0
03-06-2022, 00:04:20,    119,    0.0,   11.7,   0.00,   0.00, 1015.4,   50.8, -999.0
03-06-2022, 00:04:30,    119,    0.0,   11.6,   0.00,   0.00, 1015.4,   50.8, -999.0
03-06-2022, 00:04:40,    119,    0.0,   11.6,   0.00,   0.00, 1015.3,   51.0, -999.0
03-06-2022, 00:04:50,    120,    0.0,   11.7,   0.00,   0.00, 1015.3,   51.1, -999.0
03-06-2022, 00:05:00,    119,    0.0,   11.7,   0.00,   0.00, 1015.4,   51.0, -999.0
03-06-2022, 00:05:10,    119,    0.0,   11.6,   0.00,   0.00, 1015.3,   51.0, -999.0
03-06-2022, 00:05:20,    119,    0.0,   11.7,   0.00,   0.00, 1015.4,   51.0, -999.0
03-06-2022, 00:05:29,    110,    0.0,   11.7,   0.00,   0.00, 1015.3,   51.0, -999.0
03-06-2022, 00:05:39,    110,    0.0,   11.7,   0.00,   0.00, 1015.3,   51.0, -999.0
03-06-2022, 00:05:50,    110,    0.0,   11.7,   0.00,   0.00, 1015.3,   51.0, -999.0
03-06-2022, 00:05:59,    110,    0.0,   11.7,   0.00,   0.00, 1015.3,   51.1, -999.0
03-06-2022, 00:06:09,    110,    0.0,   11.7,   0.00,   0.00, 1015.3,   51.0, -999.0
03-06-2022, 00:06:19,    121,    0.0,   11.6,   0.00,   0.00, 1015.3,   50.8, -999.0
03-06-2022, 00:06:29,    121,    0.0,   11.6,   0.00,   0.00, 1015.4,   50.9, -999.0
03-06-2022, 00:06:39,    121,    0.0,   11.5,   0.00,   0.00, 1015.4,   50.9, -999.0
03-06-2022, 00:06:49,    121,    0.0,   11.5,   0.00,   0.00, 1015.4,   51.2, -999.0
03-06-2022, 00:06:59,    121,    0.0,   11.5,   0.00,   0.00, 1015.4,   51.3, -999.0
03-06-2022, 00:07:09,    121,    0.0,   11.5,   0.00,   0.00, 1015.4,   51.5, -999.0
03-06-2022, 00:07:19,    121,    0.0,   11.6,   0.00,   0.00, 1015.4,   51.5, -999.0
03-06-2022, 00:07:29,    121,    0.0,   11.6,   0.00,   0.00, 1015.3,   51.5, -999.0
03-06-2022, 00:07:39,    121,    0.0,   11.6,   0.00,   0.00, 1015.3,   51.4, -999.0
03-06-2022, 00:07:49,    121,    0.0,   11.6,   0.00,   0.00, 1015.3,   51.4, -999.0
03-06-2022, 00:07:59,    122,    0.0,   11.5,   0.00,   0.00, 1015.4,   51.4, -999.0
03-06-2022, 00:08:08,    121,    0.0,   11.6,   0.00,   0.00, 1015.3,   51.4, -999.0
03-06-2022, 00:08:19,    121,    0.0,   11.7,   0.00,   0.00, 1015.4,   51.4, -999.0
03-06-2022, 00:08:29,    121,    0.0,   11.7,   0.00,   0.00, 1015.4,   51.5, -999.0
03-06-2022, 00:08:38,    121,    0.0,   11.7,   0.00,   0.00, 1015.3,   51.4, -999.0
03-06-2022, 00:08:48,    121,    0.0,   11.7,   0.00,   0.00, 1015.3,   51.2, -999.0
03-06-2022, 00:08:59,    121,    0.0,   11.7,   0.00,   0.00, 1015.3,   51.2, -999.0
03-06-2022, 00:09:08,    121,    0.0,   11.8,   0.00,   0.00, 1015.3,   51.3, -999.0
03-06-2022, 00:09:18,    121,    0.0,   11.8,   0.00,   0.00, 1015.3,   51.4, -999.0
03-06-2022, 00:09:28,    121,    0.0,   11.7,   0.00,   0.00, 1015.3,   51.3, -999.0
03-06-2022, 00:09:38,    121,    0.0,   11.8,   0.00,   0.00, 1015.3,   51.3, -999.0
03-06-2022, 00:09:48,    121,    0.0,   11.7,   0.00,   0.00, 1015.3,   51.3, -999.0
03-06-2022, 00:09:58,    121,    0.0,   11.7,   0.00,   0.00, 1015.4,   51.4, -999.0
03-06-2022, 00:10:08,    123,    0.0,   11.7,   0.00,   0.00, 1015.3,   51.2, -999.0
03-06-2022, 00:10:18,    121,    0.0,   11.6,   0.00,   0.00, 1015.3,   51.3, -999.0
03-06-2022, 00:10:28,    121,    0.0,   11.8,   0.00,   0.00, 1015.3,   51.3, -999.0
03-06-2022, 00:10:38,    121,    0.0,   11.8,   0.00,   0.00, 1015.3,   51.3, -999.0
03-06-2022, 00:10:48,    121,    0.0,   11.8,   0.00,   0.00, 1015.3,   51.3, -999.0
03-06-2022, 00:10:58,    121,    0.0,   11.8,   0.00,   0.00, 1015.3,   51.2, -999.0
03-06-2022, 00:11:08,    121,    0.0,   11.8,   0.00,   0.00, 1015.3,   51.4, -999.0
03-06-2022, 00:11:17,    122,    0.0,   11.8,   0.00,   0.00, 1015.3,   51.3, -999.0
03-06-2022, 00:11:28,    121,    0.0,   11.8,   0.00,   0.00, 1015.3,   51.2, -999.0
03-06-2022, 00:11:38,    121,    0.0,   11.8,   0.00,   0.00, 1015.3,   51.2, -999.0
03-06-2022, 00:11:47,    121,    0.0,   11.8,   0.00,   0.00, 1015.3,   51.4, -999.0
03-06-2022, 00:11:58,    121,    0.0,   11.7,   0.00,   0.00, 1015.3,   51.2, -999.0
03-06-2022, 00:12:08,    121,    0.0,   11.6,   0.00,   0.00, 1015.3,   51.2, -999.0
03-06-2022, 00:12:17,    121,    0.0,   11.7,   0.00,   0.00, 1015.3,   51.1, -999.0
03-06-2022, 00:12:27,    121,    0.0,   11.6,   0.00,   0.00, 1015.3,   51.4, -999.0
03-06-2022, 00:12:37,    121,    0.0,   11.7,   0.00,   0.00, 1015.3,   51.4, -999.0
03-06-2022, 00:12:47,    121,    0.0,   11.7,   0.00,   0.00, 1015.3,   51.4, -999.0
03-06-2022, 00:12:57,    122,    0.0,   11.6,   0.00,   0.00, 1015.3,   51.4, -999.0
03-06-2022, 00:13:07,    121,    0.0,   11.6,   0.00,   0.00, 1015.3,   51.5, -999.0
03-06-2022, 00:13:17,    121,    0.0,   11.6,   0.00,   0.00, 1015.3,   51.6, -999.0
03-06-2022, 00:13:27,    121,    0.0,   11.6,   0.00,   0.00, 1015.3,   51.6, -999.0
03-06-2022, 00:13:37,    121,    0.0,   11.7,   0.00,   0.00, 1015.3,   51.6, -999.0
03-06-2022, 00:13:47,    121,    0.0,   11.7,   0.00,   0.00, 1015.3,   51.6, -999.0
03-06-2022, 00:13:57,    121,    0.0,   11.7,   0.00,   0.00, 1015.3,   51.7, -999.0
03-06-2022, 00:14:07,    121,    0.0,   11.7,   0.00,   0.00, 1015.3,   51.5, -999.0
03-06-2022, 00:14:17,    120,    0.0,   11.7,   0.00,   0.00, 1015.3,   51.6, -999.0
03-06-2022, 00:14:27,    121,    0.0,   11.6,   0.00,   0.00, 1015.3,   51.5, -999.0
03-06-2022, 00:14:37,    121,    0.0,   11.7,   0.00,   0.00, 1015.3,   51.6, -999.0
03-06-2022, 00:14:47,    121,    0.0,   11.6,   0.00,   0.00, 1015.3,   51.6, -999.0
03-06-2022, 00:14:56,    121,    0.0,   11.7,   0.00,   0.00, 1015.3,   51.7, -999.0
03-06-2022, 00:15:07,    121,    0.0,   11.7,   0.00,   0.00, 1015.3,   51.5, -999.0
03-06-2022, 00:15:16,    121,    0.0,   11.6,   0.00,   0.00, 1015.3,   51.6, -999.0
03-06-2022, 00:15:26,    121,    0.0,   11.6,   0.00,   0.00, 1015.3,   51.6, -999.0
03-06-2022, 00:15:36,    121,    0.0,   11.7,   0.00,   0.00, 1015.3,   51.6, -999.0
03-06-2022, 00:15:46,    121,    0.0,   11.7,   0.00,   0.00, 1015.3,   51.7, -999.0
03-06-2022, 00:15:56,    121,    0.0,   11.7,   0.00,   0.00, 1015.3,   51.7, -999.0
03-06-2022, 00:16:06,    121,    0.0,   11.7,   0.00,   0.00, 1015.3,   51.7, -999.0
03-06-2022, 00:16:16,    121,    0.0,   11.7,   0.00,   0.00, 1015.3,   51.8, -999.0
03-06-2022, 00:16:26,    121,    0.0,   11.8,   0.00,   0.00, 1015.3,   51.8, -999.0
03-06-2022, 00:16:36,    121,    0.0,   11.6,   0.00,   0.00, 1015.3,   51.9, -999.0
03-06-2022, 00:16:46,    121,    0.0,   11.7,   0.00,   0.00, 1015.3,   51.8, -999.0
03-06-2022, 00:16:56,    121,    0.0,   11.8,   0.00,   0.00, 1015.3,   51.9, -999.0
03-06-2022, 00:17:06,    121,    0.0,   11.8,   0.00,   0.00, 1015.3,   51.7, -999.0
03-06-2022, 00:17:16,    120,    0.0,   11.8,   0.00,   0.00, 1015.3,   51.6, -999.0
03-06-2022, 00:17:26,    121,    0.0,   11.8,   0.00,   0.00, 1015.3,   51.5, -999.0
03-06-2022, 00:17:36,    121,    0.0,   11.6,   0.00,   0.00, 1015.3,   51.6, -999.0
03-06-2022, 00:17:46,    120,    0.0,   11.6,   0.00,   0.00, 1015.3,   51.7, -999.0
03-06-2022, 00:17:55,    121,    0.0,   11.6,   0.00,   0.00, 1015.3,   51.8, -999.0
03-06-2022, 00:18:05,    121,    0.0,   11.6,   0.00,   0.00, 1015.3,   52.0, -999.0
03-06-2022, 00:18:16,    121,    0.0,   11.5,   0.00,   0.00, 1015.3,   52.1, -999.0
03-06-2022, 00:18:25,    121,    0.0,   11.4,   0.00,   0.00, 1015.2,   52.2, -999.0
03-06-2022, 00:18:35,    120,    0.0,   11.5,   0.00,   0.00, 1015.3,   52.1, -999.0
03-06-2022, 00:18:45,    120,    0.0,   11.6,   0.00,   0.00, 1015.2,   52.2, -999.0
03-06-2022, 00:18:55,    120,    0.0,   11.7,   0.00,   0.00, 1015.2,   52.3, -999.0
03-06-2022, 00:19:05,    120,    0.0,   11.7,   0.00,   0.00, 1015.3,   52.5, -999.0
03-06-2022, 00:19:15,    121,    0.0,   11.7,   0.00,   0.00, 1015.2,   52.3, -999.0
03-06-2022, 00:19:25,    121,    0.0,   11.7,   0.00,   0.00, 1015.3,   52.3, -999.0
03-06-2022, 00:19:35,    120,    0.0,   11.8,   0.00,   0.00, 1015.2,   52.2, -999.0
03-06-2022, 00:19:45,    120,    0.0,   11.8,   0.00,   0.00, 1015.2,   52.2, -999.0
03-06-2022, 00:19:55,    121,    0.0,   11.8,   0.00,   0.00, 1015.3,   52.2, -999.0
03-06-2022, 00:20:05,    120,    0.0,   11.8,   0.00,   0.00, 1015.2,   52.1, -999.0
03-06-2022, 00:20:15,    121,    0.0,   11.8,   0.00,   0.00, 1015.2,   52.0, -999.0
03-06-2022, 00:20:25,    120,    0.0,   11.8,   0.00,   0.00, 1015.3,   51.8, -999.0
03-06-2022, 00:20:35,    120,    0.0,   11.7,   0.00,   0.00, 1015.2,   51.8, -999.0
03-06-2022, 00:20:45,    120,    0.0,   11.7,   0.00,   0.00, 1015.2,   51.9, -999.0
03-06-2022, 00:20:55,    120,    0.0,   11.7,   0.00,   0.00, 1015.2,   52.0, -999.0
03-06-2022, 00:21:04,    120,    0.0,   11.6,   0.00,   0.00, 1015.3,   52.2, -999.0
03-06-2022, 00:21:14,    120,    0.0,   11.7,   0.00,   0.00, 1015.2,   52.2, -999.0
03-06-2022, 00:21:25,    120,    0.0,   11.7,   0.00,   0.00, 1015.2,   52.2, -999.0
03-06-2022, 00:21:34,    120,    0.0,   11.6,   0.00,   0.00, 1015.2,   52.3, -999.0
03-06-2022, 00:21:44,    120,    0.0,   11.6,   0.00,   0.00, 1015.3,   52.4, -999.0
03-06-2022, 00:21:54,    120,    0.0,   11.6,   0.00,   0.00, 1015.2,   52.5, -999.0
03-06-2022, 00:22:04,    120,    0.0,   11.7,   0.00,   0.00, 1015.2,   52.4, -999.0
03-06-2022, 00:22:14,    120,    0.0,   11.7,   0.00,   0.00, 1015.2,   52.3, -999.0
03-06-2022, 00:22:24,    120,    0.0,   11.7,   0.00,   0.00, 1015.2,   52.4, -999.0
03-06-2022, 00:22:34,    120,    0.0,   11.6,   0.00,   0.00, 1015.2,   52.5, -999.0
03-06-2022, 00:22:44,    120,    0.0,   11.8,   0.00,   0.00, 1015.2,   52.4, -999.0
03-06-2022, 00:22:54,    120,    0.0,   11.7,   0.00,   0.00, 1015.2,   52.3, -999.0
03-06-2022, 00:23:04,    120,    0.0,   11.7,   0.00,   0.00, 1015.2,   52.4, -999.0
03-06-2022, 00:23:14,    119,    0.0,   11.7,   0.00,   0.00, 1015.3,   52.3, -999.0
03-06-2022, 00:23:24,    120,    0.0,   11.6,   0.00,   0.00, 1015.2,   52.5, -999.0
03-06-2022, 00:23:34,    119,    0.0,   11.6,   0.00,   0.00, 1015.3,   52.6, -999.0
03-06-2022, 00:23:43,    120,    0.0,   11.5,   0.00,   0.00, 1015.3,   52.5, -999.0
03-06-2022, 00:23:54,    120,    0.0,   11.5,   0.00,   0.00, 1015.2,   52.7, -999.0
03-06-2022, 00:24:04,    120,    0.0,   11.6,   0.00,   0.00, 1015.2,   52.8, -999.0
03-06-2022, 00:24:13,    120,    0.0,   11.5,   0.00,   0.00, 1015.2,   52.9, -999.0
03-06-2022, 00:24:23,    120,    0.0,   11.6,   0.00,   0.00, 1015.2,   52.7, -999.0
03-06-2022, 00:24:34,    120,    0.0,   11.6,   0.00,   0.00, 1015.2,   52.8, -999.0
03-06-2022, 00:24:43,    120,    0.0,   11.7,   0.00,   0.00, 1015.2,   52.9, -999.0
03-06-2022, 00:24:53,    120,    0.0,   11.6,   0.00,   0.00, 1015.2,   52.8, -999.0
03-06-2022, 00:25:04,    120,    0.0,   11.6,   0.00,   0.00, 1015.2,   52.8, -999.0
03-06-2022, 00:25:13,    120,    0.0,   11.6,   0.00,   0.00, 1015.2,   52.8, -999.0
03-06-2022, 00:25:23,    120,    0.0,   11.6,   0.00,   0.00, 1015.2,   52.8, -999.0
03-06-2022, 00:25:33,    120,    0.0,   11.6,   0.00,   0.00, 1015.2,   52.6, -999.0
03-06-2022, 00:25:43,    121,    0.0,   11.6,   0.00,   0.00, 1015.2,   52.7, -999.0
03-06-2022, 00:25:53,    121,    0.0,   11.5,   0.00,   0.00, 1015.2,   52.8, -999.0
03-06-2022, 00:26:03,    121,    0.0,   11.4,   0.00,   0.00, 1015.2,   52.8, -999.0
03-06-2022, 00:26:13,    122,    0.0,   11.4,   0.00,   0.00, 1015.1,   53.0, -999.0
03-06-2022, 00:26:23,    120,    0.0,   11.5,   0.00,   0.00, 1015.2,   53.1, -999.0
03-06-2022, 00:26:33,    120,    0.0,   11.5,   0.00,   0.00, 1015.2,   53.1, -999.0
03-06-2022, 00:26:43,    120,    0.0,   11.5,   0.00,   0.00, 1015.2,   53.1, -999.0
03-06-2022, 00:26:52,    120,    0.0,   11.5,   0.00,   0.00, 1015.2,   53.2, -999.0
03-06-2022, 00:27:03,    120,    0.0,   11.6,   0.00,   0.00, 1015.2,   53.3, -999.0
03-06-2022, 00:27:13,    120,    0.0,   11.6,   0.00,   0.00, 1015.2,   53.2, -999.0
03-06-2022, 00:27:22,    120,    0.0,   11.6,   0.00,   0.00, 1015.2,   53.1, -999.0
03-06-2022, 00:27:33,    120,    0.0,   11.6,   0.00,   0.00, 1015.2,   53.1, -999.0
03-06-2022, 00:27:43,    121,    0.0,   11.6,   0.00,   0.00, 1015.2,   53.1, -999.0
03-06-2022, 00:27:52,    120,    0.0,   11.6,   0.00,   0.00, 1015.2,   53.1, -999.0
03-06-2022, 00:28:02,    120,    0.0,   11.6,   0.00,   0.00, 1015.2,   53.1, -999.0
03-06-2022, 00:28:13,    120,    0.0,   11.7,   0.00,   0.00, 1015.2,   53.1, -999.0
03-06-2022, 00:28:22,    121,    0.0,   11.6,   0.00,   0.00, 1015.2,   53.1, -999.0
03-06-2022, 00:28:32,    120,    0.0,   11.7,   0.00,   0.00, 1015.1,   53.0, -999.0
03-06-2022, 00:28:42,    121,    0.0,   11.7,   0.00,   0.00, 1015.2,   53.1, -999.0
03-06-2022, 00:28:52,    120,    0.0,   11.7,   0.00,   0.00, 1015.2,   53.0, -999.0
03-06-2022, 00:29:02,    120,    0.0,   11.7,   0.00,   0.00, 1015.2,   53.0, -999.0
03-06-2022, 00:29:12,    120,    0.0,   11.7,   0.00,   0.00, 1015.2,   53.0, -999.0
03-06-2022, 00:29:22,    120,    0.0,   11.6,   0.00,   0.00, 1015.2,   52.9, -999.0
03-06-2022, 00:29:32,    120,    0.0,   11.6,   0.00,   0.00, 1015.2,   53.0, -999.0
03-06-2022, 00:29:42,    121,    0.0,   11.7,   0.00,   0.00, 1015.2,   53.0, -999.0
03-06-2022, 00:29:52,    120,    0.0,   11.7,   0.00,   0.00, 1015.2,   53.2, -999.0
03-06-2022, 00:30:01,    120,    0.0,   11.7,   0.00,   0.00, 1015.2,   53.3, -999.0
03-06-2022, 00:30:12,    120,    0.0,   11.7,   0.00,   0.00, 1015.2,   53.3, -999.0
03-06-2022, 00:30:22,    120,    0.0,   11.7,   0.00,   0.00, 1015.2,   53.1, -999.0
03-06-2022, 00:30:31,    120,    0.0,   11.7,   0.00,   0.00, 1015.2,   53.2, -999.0
03-06-2022, 00:30:42,    120,    0.0,   11.6,   0.00,   0.00, 1015.2,   53.1, -999.0
03-06-2022, 00:30:52,    121,    0.0,   11.6,   0.00,   0.00, 1015.2,   53.1, -999.0
03-06-2022, 00:31:01,    120,    0.0,   11.7,   0.00,   0.00, 1015.2,   52.9, -999.0
03-06-2022, 00:31:12,    120,    0.0,   11.6,   0.00,   0.00, 1015.2,   53.1, -999.0
03-06-2022, 00:31:21,    120,    0.0,   11.6,   0.00,   0.00, 1015.2,   53.1, -999.0
03-06-2022, 00:31:31,    121,    0.0,   11.5,   0.00,   0.00, 1015.2,   53.2, -999.0
03-06-2022, 00:31:41,    120,    0.0,   11.5,   0.00,   0.00, 1015.2,   53.1, -999.0
03-06-2022, 00:31:51,    120,    0.0,   11.4,   0.00,   0.00, 1015.2,   53.4, -999.0
03-06-2022, 00:32:01,    120,    0.0,   11.4,   0.00,   0.00, 1015.2,   53.3, -999.0
03-06-2022, 00:32:11,    120,    0.0,   11.5,   0.00,   0.00, 1015.2,   53.5, -999.0
03-06-2022, 00:32:21,    120,    0.0,   11.6,   0.00,   0.00, 1015.2,   53.6, -999.0
03-06-2022, 00:32:31,    120,    0.0,   11.5,   0.00,   0.00, 1015.2,   53.6, -999.0
03-06-2022, 00:32:41,    121,    0.0,   11.5,   0.00,   0.00, 1015.1,   53.6, -999.0
03-06-2022, 00:32:51,    120,    0.0,   11.5,   0.00,   0.00, 1015.2,   53.7, -999.0
03-06-2022, 00:33:01,    120,    0.0,   11.4,   0.00,   0.00, 1015.2,   53.5, -999.0
03-06-2022, 00:33:11,    121,    0.0,   11.4,   0.00,   0.00, 1015.2,   53.7, -999.0
03-06-2022, 00:33:21,    120,    0.0,   11.4,   0.00,   0.00, 1015.2,   53.8, -999.0
03-06-2022, 00:33:31,    119,    0.0,   11.4,   0.00,   0.00, 1015.2,   53.8, -999.0
03-06-2022, 00:33:40,    120,    0.0,   11.5,   0.00,   0.00, 1015.2,   53.8, -999.0
03-06-2022, 00:33:51,    121,    0.0,   11.5,   0.00,   0.00, 1015.2,   53.9, -999.0
03-06-2022, 00:34:00,    120,    0.0,   11.4,   0.00,   0.00, 1015.2,   53.9, -999.0
03-06-2022, 00:34:10,    121,    0.0,   11.4,   0.00,   0.00, 1015.2,   54.0, -999.0
03-06-2022, 00:34:20,    120,    0.0,   11.4,   0.00,   0.00, 1015.2,   54.0, -999.0
03-06-2022, 00:34:30,    120,    0.0,   11.4,   0.00,   0.00, 1015.2,   53.9, -999.0
03-06-2022, 00:34:40,    120,    0.0,   11.4,   0.00,   0.00, 1015.2,   54.2, -999.0
03-06-2022, 00:34:50,    121,    0.0,   11.5,   0.00,   0.00, 1015.2,   54.2, -999.0
03-06-2022, 00:35:00,    120,    0.0,   11.5,   0.00,   0.00, 1015.2,   54.1, -999.0
03-06-2022, 00:35:10,    120,    0.0,   11.5,   0.00,   0.00, 1015.2,   54.2, -999.0
03-06-2022, 00:35:20,    120,    0.0,   11.5,   0.00,   0.00, 1015.2,   54.3, -999.0
03-06-2022, 00:35:30,    120,    0.0,   11.4,   0.00,   0.00, 1015.2,   54.5, -999.0
03-06-2022, 00:35:40,    120,    0.0,   11.5,   0.00,   0.00, 1015.2,   54.5, -999.0
03-06-2022, 00:35:50,    120,    0.0,   11.5,   0.00,   0.00, 1015.2,   54.4, -999.0
03-06-2022, 00:36:00,    120,    0.0,   11.5,   0.00,   0.00, 1015.2,   54.5, -999.0
03-06-2022, 00:36:10,    120,    0.0,   11.6,   0.00,   0.00, 1015.1,   54.4, -999.0
03-06-2022, 00:36:20,    120,    0.0,   11.6,   0.00,   0.00, 1015.2,   54.4, -999.0
03-06-2022, 00:36:30,    120,    0.0,   11.6,   0.00,   0.00, 1015.2,   54.5, -999.0
03-06-2022, 00:36:40,    120,    0.0,   11.7,   0.00,   0.00, 1015.2,   54.4, -999.0
03-06-2022, 00:36:49,    121,    0.0,   11.7,   0.00,   0.00, 1015.2,   54.5, -999.0
03-06-2022, 00:37:00,    120,    0.0,   11.8,   0.00,   0.00, 1015.2,   54.4, -999.0
03-06-2022, 00:37:09,    120,    0.0,   11.8,   0.00,   0.00, 1015.2,   54.3, -999.0
03-06-2022, 00:37:19,    120,    0.0,   11.7,   0.00,   0.00, 1015.2,   54.3, -999.0
03-06-2022, 00:37:29,    120,    0.0,   11.7,   0.00,   0.00, 1015.2,   54.3, -999.0
03-06-2022, 00:37:39,    120,    0.0,   11.6,   0.00,   0.00, 1015.2,   54.3, -999.0
03-06-2022, 00:37:49,    120,    0.0,   11.7,   0.00,   0.00, 1015.2,   54.5, -999.0
03-06-2022, 00:37:59,    120,    0.0,   11.8,   0.00,   0.00, 1015.2,   54.4, -999.0
03-06-2022, 00:38:09,    120,    0.0,   11.7,   0.00,   0.00, 1015.1,   54.5, -999.0
03-06-2022, 00:38:19,    120,    0.0,   11.7,   0.00,   0.00, 1015.2,   54.3, -999.0
03-06-2022, 00:38:29,    120,    0.0,   11.7,   0.00,   0.00, 1015.2,   54.3, -999.0
03-06-2022, 00:38:39,    120,    0.0,   11.7,   0.00,   0.00, 1015.2,   54.4, -999.0
03-06-2022, 00:38:49,    121,    0.0,   11.7,   0.00,   0.00, 1015.2,   54.3, -999.0
03-06-2022, 00:38:59,    120,    0.0,   11.7,   0.00,   0.00, 1015.2,   54.4, -999.0
03-06-2022, 00:39:09,    120,    0.0,   11.7,   0.00,   0.00, 1015.2,   54.4, -999.0
03-06-2022, 00:39:19,    121,    0.0,   11.6,   0.00,   0.00, 1015.2,   54.5, -999.0
03-06-2022, 00:39:29,    120,    0.0,   11.5,   0.00,   0.00, 1015.2,   54.5, -999.0
03-06-2022, 00:39:39,    120,    0.0,   11.4,   0.00,   0.00, 1015.1,   54.5, -999.0
03-06-2022, 00:39:48,    120,    0.0,   11.3,   0.00,   0.00, 1015.1,   54.7, -999.0
03-06-2022, 00:39:59,    120,    0.0,   11.2,   0.00,   0.00, 1015.1,   54.9, -999.0
03-06-2022, 00:40:09,    120,    0.0,   11.1,   0.00,   0.00, 1015.2,   55.4, -999.0
03-06-2022, 00:40:18,    120,    0.0,   11.1,   0.00,   0.00, 1015.2,   55.7, -999.0
03-06-2022, 00:40:28,    120,    0.0,   11.0,   0.00,   0.00, 1015.1,   55.8, -999.0
03-06-2022, 00:40:39,    120,    0.0,   11.0,   0.00,   0.00, 1015.2,   56.2, -999.0
03-06-2022, 00:40:48,    120,    0.0,   10.8,   0.00,   0.00, 1015.2,   56.2, -999.0
03-06-2022, 00:40:58,    120,    0.0,   10.8,   0.00,   0.00, 1015.1,   56.3, -999.0
03-06-2022, 00:41:08,    120,    0.0,   10.9,   0.00,   0.00, 1015.1,   56.3, -999.0
03-06-2022, 00:41:18,    120,    0.0,   10.8,   0.00,   0.00, 1015.2,   56.2, -999.0
03-06-2022, 00:41:28,    119,    0.0,   10.7,   0.00,   0.00, 1015.1,   56.4, -999.0
03-06-2022, 00:41:38,    120,    0.0,   10.8,   0.00,   0.00, 1015.1,   56.5, -999.0
03-06-2022, 00:41:48,    120,    0.0,   10.7,   0.00,   0.00, 1015.2,   56.7, -999.0
03-06-2022, 00:41:58,    120,    0.0,   10.7,   0.00,   0.00, 1015.1,   56.8, -999.0
03-06-2022, 00:42:08,    120,    0.0,   10.7,   0.00,   0.00, 1015.2,   56.7, -999.0
03-06-2022, 00:42:18,    120,    0.0,   10.7,   0.00,   0.00, 1015.2,   56.7, -999.0
03-06-2022, 00:42:28,    120,    0.0,   10.6,   0.00,   0.00, 1015.2,   56.7, -999.0
03-06-2022, 00:42:38,    120,    0.0,   10.7,   0.00,   0.00, 1015.2,   56.8, -999.0
03-06-2022, 00:42:48,    120,    0.0,   10.6,   0.00,   0.00, 1015.2,   57.0, -999.0
03-06-2022, 00:42:57,    120,    0.0,   10.6,   0.00,   0.00, 1015.2,   56.9, -999.0
03-06-2022, 00:43:08,    120,    0.0,   10.5,   0.00,   0.00, 1015.2,   56.9, -999.0
03-06-2022, 00:43:18,    120,    0.0,   10.6,   0.00,   0.00, 1015.2,   57.3, -999.0
03-06-2022, 00:43:27,    120,    0.0,   10.5,   0.00,   0.00, 1015.2,   57.4, -999.0
03-06-2022, 00:43:37,    120,    0.0,   10.5,   0.00,   0.00, 1015.2,   57.4, -999.0
03-06-2022, 00:43:48,    120,    0.0,   10.4,   0.00,   0.00, 1015.2,   57.7, -999.0
03-06-2022, 00:43:57,    119,    0.0,   10.4,   0.00,   0.00, 1015.2,   57.9, -999.0
03-06-2022, 00:44:07,    120,    0.0,   10.5,   0.00,   0.00, 1015.2,   58.0, -999.0
03-06-2022, 00:44:17,    120,    0.0,   10.6,   0.00,   0.00, 1015.2,   58.3, -999.0
03-06-2022, 00:44:27,    120,    0.0,   10.5,   0.00,   0.00, 1015.2,   58.3, -999.0
03-06-2022, 00:44:37,    120,    0.0,   10.5,   0.00,   0.00, 1015.2,   58.2, -999.0
03-06-2022, 00:44:47,    120,    0.0,   10.5,   0.00,   0.00, 1015.2,   58.3, -999.0
03-06-2022, 00:44:57,    120,    0.0,   10.5,   0.00,   0.00, 1015.2,   58.4, -999.0
03-06-2022, 00:45:07,    119,    0.0,   10.5,   0.00,   0.00, 1015.2,   58.5, -999.0
03-06-2022, 00:45:17,    120,    0.0,   10.5,   0.00,   0.00, 1015.2,   58.4, -999.0
03-06-2022, 00:45:27,    120,    0.0,   10.5,   0.00,   0.00, 1015.2,   58.4, -999.0
03-06-2022, 00:45:37,    120,    0.0,   10.5,   0.00,   0.00, 1015.2,   58.4, -999.0
03-06-2022, 00:45:47,    120,    0.0,   10.5,   0.00,   0.00, 1015.2,   58.5, -999.0
03-06-2022, 00:45:57,    120,    0.0,   10.4,   0.00,   0.00, 1015.2,   58.5, -999.0
03-06-2022, 00:46:06,    120,    0.0,   10.4,   0.00,   0.00, 1015.2,   58.4, -999.0
03-06-2022, 00:46:17,    120,    0.0,   10.4,   0.00,   0.00, 1015.2,   58.3, -999.0
03-06-2022, 00:46:27,    121,    0.0,   10.5,   0.00,   0.00, 1015.2,   58.4, -999.0
03-06-2022, 00:46:36,    120,    0.0,   10.3,   0.00,   0.00, 1015.2,   58.7, -999.0